[Iaude] MPEC M105: 2022 MX2 [a=2.10,e=0.47,i=4.0,H=24.5]

mpec at marsden.cfa.harvard.edu mpec at marsden.cfa.harvard.edu
Thu Jun 30 07:13:57 EDT 2022


M.P.E.C. 2022-M105                                Issued 2022 June 30, 11:12 UT

     The Minor Planet Electronic Circulars contain information on unusual
         minor planets and routine data on comets.  They are published
    on behalf of Division F of the International Astronomical Union by the
          Minor Planet Center, Smithsonian Astrophysical Observatory,
                          Cambridge, MA 02138, U.S.A.

             Prepared using the Tamkin Foundation Computer Network

                              MPC at CFA.HARVARD.EDU
            URL https://www.minorplanetcenter.net/    ISSN 1523-6714

                                    2022 MX2                                    


Observations:
     K22M02X* C2022 06 26.31394917 30 07.563+15 47 56.28         21.79wUEM105F52
     K22M02X  C2022 06 26.32666917 30 11.106+15 48 15.63         21.32wUEM105F52
     K22M02X  C2022 06 26.33935517 30 14.668+15 48 34.67         21.85wUEM105F52
     K22M02X KC2022 06 27.24816817 34 53.46 +16 09 55.6          22.0 VuEM105H21
     K22M02X KC2022 06 27.25251517 34 54.73 +16 10 01.9          21.6 VuEM105H21
     K22M02X KC2022 06 27.25686117 34 55.99 +16 10 07.5          22.0 VuEM105H21
     K22M02X ^C2022 06 27.27615717 35 06.438+16 10 53.25         21.48GVEM105568
     K22M02X ^C2022 06 27.27811717 35 07.011+16 10 56.20         21.29GVEM105568
     K22M02X ^C2022 06 27.27910417 35 07.297+16 10 57.62         21.38GVEM105568
     K22M02X KC2022 06 28.19176117 39 53.94 +16 31 19.0          21.4 VuEM105H21
     K22M02X KC2022 06 28.19613617 39 55.23 +16 31 24.8          22.1 VuEM105H21
     K22M02X KC2022 06 28.20062817 39 56.60 +16 31 30.6          22.1 VuEM105H21
     K22M02X KC2022 06 29.18422517 45 16.04 +16 52 26.7          21.6 VuEM105H21
     K22M02X KC2022 06 29.18702217 45 16.87 +16 52 29.9          21.3 VuEM105H21
     K22M02X KC2022 06 29.19000517 45 17.78 +16 52 33.9          20.9 VuEM105H21
     K22M02X KC2022 06 30.16748017 50 42.26 +17 11 56.9          21.7 VuEM105H21
     K22M02X KC2022 06 30.17197217 50 43.67 +17 12 02.0          21.6 VuEM105H21

Observer details:
568 Mauna Kea.  Observers R. Wainscoat, L. Wells, H. Flewelling.  Measurers R.
    Weryk, R. Wainscoat.  3.6-m Canada-France-Hawaii Telescope + CCD.
F52 Pan-STARRS 2, Haleakala.  Observers J. Bulger, T. Lowe, A. Schultz, I.
    Smith.  Measurers K. Chambers, S. Chastel, T. de Boer, J. Fairlamb, H.
    Gao, M. Huber, C.-C. Lin, E. Magnier, Y. Ramanjooloo, R. Wainscoat, R.
    Weryk.  1.8-m Ritchey-Chretien + CCD.
H21 Astronomical Research Observatory, Westfield.  Observer R. Holmes.
    Measurers T. Linder, R. Holmes, L. Horn.  1.3-m f/4.0 astrograph + CCD,
    0.76-m f/3.0 astrograph + CCD.

Orbital elements:
2022 MX2                                                 Earth MOID = 0.1160 AU
Epoch 2022 Aug. 9.0 TT = JDT 2459800.5                  Veres                   
M  10.72315              (2000.0)            P               Q                  
n   0.32348627     Peri.   92.03486     +0.24243846     +0.97005633             
a   2.1016746      Node   192.02604     -0.91570679     +0.22381870             
e   0.4738928      Incl.    4.02897     -0.32047568     +0.09431812             
P   3.05           H   24.52          G   0.15           U   8                  
Residuals in seconds of arc
220626 F52  0.1+  0.1+    220627 568  0.0   0.0     220629 H21  0.5+  0.4-
220626 F52  0.3-  0.0     220627 568  0.0   0.0     220629 H21  0.2+  0.7-
220626 F52  0.0   0.2-    220627 568  0.0   0.0     220629 H21  0.3+  0.4-
220627 H21  0.3-  0.0     220628 H21  0.2-  0.3+    220630 H21  0.4-  0.5+
220627 H21  0.1-  0.3+    220628 H21  0.3-  0.3+    220630 H21  0.1-  0.4+
220627 H21  0.1-  0.1-    220628 H21  0.3+  0.1+

Ephemeris:
2022 MX2                 a,e,i = 2.10, 0.47, 4                   q = 1.1057
Date    TT    R. A. (2000) Decl.     Delta      r    Elong.  Phase     V
2022 05 31    16 02 59.1 +02 06 28   0.1796  1.1792   155.1    21.2    22.2
...
2022 06 15    16 41 30.9 +10 15 36   0.1403  1.1325   144.2    31.6    21.9
...
2022 06 23    17 13 57.2 +14 20 48   0.1267  1.1166   140.2    35.7    21.7
...
2022 06 29    17 44 14.7 +16 49 05   0.1200  1.1092   138.4    37.5    21.7
2022 06 30    17 49 44.9 +17 09 11   0.1192  1.1084   138.2    37.7    21.6
2022 07 01    17 55 21.8 +17 27 43   0.1185  1.1076   138.0    37.9    21.6
...
2022 07 07    18 30 55.9 +18 41 55   0.1162  1.1057   137.9    38.0    21.6
...
2022 07 15    19 19 55.2 +18 32 32   0.1186  1.1095   139.7    36.4    21.6
...
2022 07 30    20 36 53.3 +13 39 33   0.1396  1.1357   147.7    28.5    21.8

M. P. C. Staff               (C) Copyright 2022 MPC           M.P.E.C. 2022-M105




More information about the Iaude mailing list